This demonstration page uses our WeatherBlox Daily Observations layout. Learn more.

39.29038, -76.61219

Hourly Observations for October 19, 2015

Temp ( °F °C ) Dew Point ( °F °C ) Humidity (%) Winds ( mph kmh ) Pressure ( in mb ) Visibility ( mi km ) Precip ( " mm )
12:54 am 00:54 undefined 43 6.1 31 -0.6 63 63 undefined N/A 30.44 1031 N/A 0 0
1:54 am 01:54 undefined 42 5.6 31 -0.6 65 65 undefined N/A 30.45 1031 N/A 0 0
2:54 am 02:54 undefined 41 5 30 -1.1 65 65 undefined N/A 30.46 1032 N/A 0 0
3:54 am 03:54 undefined 41 5 30 -1.1 65 65 undefined N/A 30.47 1032 N/A 0 0
4:54 am 04:54 undefined 41 5 30 -1.1 65 65 undefined N/A 30.48 1032 N/A 0 0
5:54 am 05:54 undefined 39 3.9 30 -1.1 70 70 undefined N/A 30.49 1033 N/A 0 0
6:54 am 06:54 undefined 38 3.3 31 -0.6 76 76 undefined N/A 30.5 1033 N/A 0 0
7:54 am 07:54 undefined 39 3.9 31 -0.6 73 73 undefined N/A 30.53 1034 N/A 0 0
8:54 am 08:54 undefined 42 5.6 31 -0.6 65 65 undefined N/A 30.53 1034 N/A 0 0
9:54 am 09:54 undefined 46 7.8 28 -2.2 50 50 undefined N/A 30.54 1034 N/A 0 0
10:54 am 10:54 undefined 50 10 30 -1.1 46 46 undefined N/A 30.53 1034 N/A 0 0
11:54 am 11:54 undefined 49 9.4 28 -2.2 44 44 undefined N/A 30.51 1033 N/A 0 0
12:54 pm 12:54 undefined 51 10.6 29 -1.7 43 43 undefined N/A 30.48 1032 N/A 0 0
1:54 pm 13:54 undefined 54 12.2 29 -1.7 38 38 undefined N/A 30.45 1031 N/A 0 0
2:54 pm 14:54 undefined 56 13.3 31 -0.6 39 39 undefined N/A 30.42 1030 N/A 0 0
3:54 pm 15:54 undefined 54 12.2 34 1.1 47 47 undefined N/A 30.41 1030 N/A 0 0
4:54 pm 16:54 undefined 54 12.2 34 1.1 47 47 undefined N/A 30.39 1029 N/A 0 0
5:54 pm 17:54 undefined 55 12.8 28 -2.2 35 35 undefined N/A 30.38 1029 N/A 0 0
6:54 pm 18:54 undefined 53 11.7 31 -0.6 43 43 undefined N/A 30.37 1029 N/A 0 0
7:54 pm 19:54 undefined 51 10.6 34 1.1 52 52 undefined N/A 30.37 1029 N/A 0 0
8:54 pm 20:54 undefined 50 10 32 0 50 50 undefined N/A 30.37 1028 N/A 0 0
9:54 pm 21:54 undefined 49 9.4 31 -0.6 50 50 undefined N/A 30.37 1028 N/A 0 0
10:54 pm 22:54 undefined 48 8.9 32 0 54 54 undefined N/A 30.36 1028 N/A 0 0
11:54 pm 23:54 undefined 46 7.8 33 0.6 61 61 undefined N/A 30.35 1028 N/A 0 0

Powered by AerisWeather